Location: Unspecified
(0.0000°N, 0.0000°E)
Time: 20:11:36
(UTC+01:00)

Iridium 75 - Visible Passes

Search period start: 11 February 2016 00:00
Search period end: 21 February 2016 00:00
Orbit: 776 x 779 km, 86.4° (Epoch: 11 February)

Date Brightness Start Highest point End Pass type
(mag) Time Alt. Az. Time Alt. Az. Time Alt. Az.
11 Feb 7.5 20:37:49 10° SSW 20:42:37 38° W 20:47:25 10° NNW visible
12 Feb 6.1 20:03:56 10° S 20:09:10 86° W 20:14:23 10° N visible
13 Feb 6.4 19:30:48 10° SSE 19:35:43 42° E 19:40:36 10° NNE visible
14 Feb 8.4 20:38:34 10° SW 20:42:41 24° W 20:46:47 10° NW visible
15 Feb 6.9 20:04:10 10° SSW 20:09:14 52° W 20:14:17 10° NNW visible
16 Feb 6.0 19:30:34 10° S 19:35:46 70° E 19:40:56 10° N visible
17 Feb 9.7 06:27:56 10° E 06:28:46 10° E 06:29:36 10° E visible
17 Feb 9.1 20:39:58 10° WSW 20:42:44 14° W 20:45:29 10° WNW visible
18 Feb 8.0 20:04:40 10° SSW 20:09:17 32° W 20:13:53 10° NNW visible
19 Feb 6.4 19:30:37 10° S 19:35:50 73° W 19:41:00 10° N visible
20 Feb 9.0 06:25:24 10° NE 06:28:49 18° E 06:32:15 10° SE visible
